This is the latest recevied weather packets stored in our database for station/object K5NCO. If no packets are shown the sender has not sent any weather packets the latest 10 day(s).
| Time | Temp. | Humidity | Pressure | Rain* | Wind** | Luminosity | Snow |
|---|---|---|---|---|---|---|---|
| 1777902555 | 18.33° C | 79% | 1016.4 hPa | 0 mm | - | 202 W/m² | - |
| 1777902251 | 18.33° C | 78% | 1016.5 hPa | 0 mm | - | 192 W/m² | - |
| 1777901949 | 18.33° C | 79% | 1016.5 hPa | 0 mm | - | 172 W/m² | - |
| 1777901647 | 17.78° C | 80% | 1016.6 hPa | 0 mm | - | 161 W/m² | - |
| 1777901344 | 17.78° C | 80% | 1016.5 hPa | 0 mm | - | 149 W/m² | - |
| 1777901041 | 17.78° C | 80% | 1016.6 hPa | 0 mm | - | 159 W/m² | - |
| 1777900739 | 17.78° C | 80% | 1016.6 hPa | 0 mm | - | 160 W/m² | - |
| 1777900435 | 17.78° C | 81% | 1016.8 hPa | 0 mm | - | 137 W/m² | - |
| 1777900132 | 17.22° C | 81% | 1016.5 hPa | 0 mm | - | 133 W/m² | - |
| 1777899829 | 17.22° C | 81% | 1016.6 hPa | 0 mm | - | 111 W/m² | - |
| 1777899526 | 17.22° C | 82% | 1016.5 hPa | 0 mm | - | 96 W/m² | - |
| 1777899224 | 16.67° C | 82% | 1016.4 hPa | 0 mm | - | 76 W/m² | - |
| 1777898921 | 16.67° C | 82% | 1016.3 hPa | 0 mm | - | 81 W/m² | - |
| 1777898618 | 16.67° C | 82% | 1016.4 hPa | 0 mm | - | 81 W/m² | - |
| 1777898315 | 16.67° C | 83% | 1016.6 hPa | 0 mm | - | 73 W/m² | - |
| 1777898012 | 16.67° C | 83% | 1016.4 hPa | 0 mm | - | 48 W/m² | - |
| 1777897709 | 16.11° C | 84% | 1016.5 hPa | 0 mm | - | 43 W/m² | - |
| 1777897405 | 16.11° C | 84% | 1016.4 hPa | 0 mm | - | 28 W/m² | - |
| 1777897101 | 16.11° C | 84% | 1016.4 hPa | 0 mm | - | 22 W/m² | - |
| 1777896798 | 16.11° C | 84% | 1016 hPa | 0 mm | - | 18 W/m² | - |
| 1777896495 | 16.11° C | 84% | 1016.1 hPa | 0 mm | - | 16 W/m² | - |
| 1777896192 | 16.11° C | 84% | 1015.8 hPa | 0 mm | - | 12 W/m² | - |
| 1777895890 | 16.11° C | 84% | 1015.6 hPa | 0 mm | - | 8 W/m² | - |
| 1777895588 | 16.11° C | 84% | 1015.9 hPa | 0 mm | - | 5 W/m² | - |
| 1777895284 | 16.11° C | 84% | 1015.6 hPa | 0 mm | - | 3 W/m² | - |
* Rain latest hour (hover to see other rain measurements)
** Current wind speed in m/s (hover to see current wind gust speed)